Weather History for Smyrna, TN

Change the Weather History Date:

Tuesday, February 26, 2013

  Actual Average Record
Temperature  
Mean Temperature 46 °F -  
Max Temperature 54 °F 51 °F 71 °F (1998)
Min Temperature 39 °F 37 °F 22 °F (2012)
Degree Days  
Heating Degree Days 18    
Moisture  
Dew Point 41 °F    
Average Humidity 79    
Maximum Humidity 89    
Minimum Humidity 61    
Precipitation  
Precipitation 0.09 in - - ()
Sea Level Pressure  
Sea Level Pressure 29.59 in    
Wind  
Wind Speed 13 mph (SW)    
Max Wind Speed 20 mph    
Max Gust Speed 33 mph    
Visibility 10 miles    
Events Rain    
Averages and records for this station are not official NWS values.
T = Trace of Precipitation, MM = Missing Value Source: NWS Daily Summary

Daily Weather History Graph

Daily Weather History Graph

Search for Another Location

Airport:

Trip Planner

Search our weather history database for the weather conditions in past years. The results will help you decide how hot, cold, wet, or windy it might be!

Date:

Astronomy

Feb. 26, 2013 Rise Set
Actual Time 6:19 AM CST 5:38 PM CST
Civil Twilight 5:54 AM CST 6:04 PM CST
Nautical Twilight 5:24 AM CST 6:34 PM CST
Astronomical Twilight 4:54 AM CST 7:03 PM CST
Moon 6:50 PM CST (2/26) 6:25 AM CST (2/26)
Length of Visible Light 12h 10m
Length of Day
11h 18m
Full, 99% of the Moon is Illuminated
Feb 26
Full
Mar 4
Last Quarter
Mar 11
New
Mar 19
First Quarter
Mar 27
Full

Hourly Weather History & Observations

Time (CST) Temp. Windchill Dew Point Humidity Pressure Visibility Wind Dir Wind Speed Gust Speed Precip Events Conditions
12:56 AM 54.0 °F - 47.8 °F 80% 29.55 in 10.0 mi SE 9.2 mph - 0.00 in   Scattered Clouds
1:32 AM 53.6 °F - 48.2 °F 82% 29.53 in 10.0 mi SSE 13.8 mph - 0.00 in Rain Light Rain
1:56 AM 54.0 °F - 48.9 °F 83% 29.49 in 10.0 mi SE 15.0 mph 20.7 mph 0.00 in   Mostly Cloudy
2:05 AM 53.6 °F - 48.2 °F 82% 29.49 in 8.0 mi South 13.8 mph 23.0 mph 0.01 in Rain Light Rain
2:15 AM 53.6 °F - 48.2 °F 82% 29.47 in 7.0 mi SSE 19.6 mph 25.3 mph 0.02 in Rain Light Rain
2:56 AM 52.0 °F - 48.9 °F 89% 29.49 in 9.0 mi South 15.0 mph 26.5 mph 0.08 in Rain Light Rain
3:56 AM 50.9 °F - 47.8 °F 89% 29.49 in 10.0 mi South 13.8 mph 23.0 mph 0.00 in   Overcast
4:56 AM 52.0 °F - 47.8 °F 86% 29.47 in 10.0 mi South 15.0 mph - 0.00 in Rain Light Rain
5:30 AM 51.8 °F - 46.4 °F 82% 29.43 in 10.0 mi South 12.7 mph 25.3 mph 0.00 in   Overcast
5:48 AM 51.8 °F - 46.4 °F 82% 29.44 in 10.0 mi South 12.7 mph - 0.00 in   Overcast
6:56 AM 52.9 °F - 47.8 °F 83% 29.46 in 10.0 mi South 15.0 mph 23.0 mph N/A   Overcast
7:56 AM 52.9 °F - 46.9 °F 80% 29.48 in 10.0 mi South 15.0 mph 23.0 mph N/A   Overcast
8:56 AM 50.9 °F - 47.8 °F 89% 29.49 in 10.0 mi SSW 10.4 mph - 0.00 in   Overcast
9:56 AM 50.9 °F - 45.9 °F 83% 29.48 in 10.0 mi South 18.4 mph 23.0 mph N/A   Overcast
10:56 AM 50.0 °F - 45.9 °F 86% 29.49 in 10.0 mi SSW 17.3 mph 23.0 mph 0.01 in   Overcast
11:29 AM 51.8 °F - 44.6 °F 76% 29.48 in 10.0 mi SW 15.0 mph 20.7 mph 0.00 in   Overcast
11:56 AM 48.9 °F - 41.0 °F 74% 29.52 in 10.0 mi SW 12.7 mph 23.0 mph 0.00 in   Overcast
12:56 PM 50.0 °F - 37.9 °F 63% 29.52 in 10.0 mi SW 16.1 mph 25.3 mph N/A   Overcast
1:56 PM 47.8 °F - 36.0 °F 63% 29.57 in 10.0 mi WSW 11.5 mph 24.2 mph N/A   Overcast
2:56 PM 47.8 °F - 34.9 °F 61% 29.58 in 10.0 mi SW 16.1 mph 24.2 mph N/A   Overcast
3:56 PM 46.9 °F - 36.9 °F 68% 29.60 in 10.0 mi SW 11.5 mph 18.4 mph N/A   Overcast
4:13 PM 46.4 °F 39.8 °F 37.4 °F 71% 29.58 in 10.0 mi West 16.1 mph - N/A   Overcast
4:56 PM 43.9 °F 38.8 °F 38.8 °F 82% 29.62 in 10.0 mi SW 9.2 mph 17.3 mph 0.00 in Rain Light Rain
5:04 PM 44.6 °F 38.1 °F 37.4 °F 76% 29.60 in 10.0 mi WSW 13.8 mph 17.3 mph 0.00 in   Overcast
5:56 PM 43.0 °F 34.8 °F 37.9 °F 82% 29.67 in 6.0 mi WSW 18.4 mph 33.4 mph 0.00 in Rain Light Rain
6:25 PM 42.8 °F 35.4 °F 37.4 °F 81% 29.65 in 10.0 mi West 15.0 mph - 0.00 in   Overcast
6:56 PM 43.0 °F 36.8 °F 36.0 °F 76% 29.69 in 10.0 mi WSW 11.5 mph - 0.00 in   Overcast
7:21 PM 42.8 °F 35.1 °F 35.6 °F 76% 29.67 in 10.0 mi WSW 16.1 mph 21.9 mph N/A   Overcast
7:42 PM 42.8 °F 36.2 °F 35.6 °F 76% 29.68 in 10.0 mi WSW 12.7 mph - N/A   Overcast
7:56 PM 41.9 °F 35.4 °F 34.9 °F 76% 29.71 in 10.0 mi WSW 11.5 mph 21.9 mph N/A   Overcast
8:31 PM 42.8 °F 35.8 °F 35.6 °F 76% 29.70 in 10.0 mi SW 13.8 mph 24.2 mph N/A   Overcast
8:56 PM 41.9 °F 34.6 °F 34.9 °F 76% 29.74 in 10.0 mi WSW 13.8 mph - N/A   Overcast
9:56 PM 41.0 °F 33.9 °F 34.9 °F 79% 29.75 in 10.0 mi WSW 12.7 mph 20.7 mph N/A   Overcast
10:12 PM 42.8 °F 37.5 °F 35.6 °F 76% 29.72 in 10.0 mi SW 9.2 mph 20.7 mph N/A   Overcast
10:56 PM 41.0 °F 33.5 °F 34.9 °F 79% 29.77 in 10.0 mi West 13.8 mph - N/A   Overcast
11:25 PM 39.2 °F 31.2 °F 35.6 °F 87% 29.74 in 10.0 mi WSW 13.8 mph 25.3 mph 0.00 in Rain Light Rain
11:35 PM 39.2 °F 31.6 °F 35.6 °F 87% 29.74 in 10.0 mi West 12.7 mph - 0.00 in   Mostly Cloudy
11:56 PM 39.9 °F 32.9 °F 34.9 °F 82% 29.78 in 10.0 mi West 11.5 mph - 0.00 in   Overcast